HST,Max TemperatureF,Mean TemperatureF,Min TemperatureF,Max Dew PointF,MeanDew PointF,Min DewpointF,Max Humidity, Mean Humidity, Min Humidity, Max Sea Level PressureIn, Mean Sea Level PressureIn, Min Sea Level PressureIn, Max VisibilityMiles, Mean VisibilityMiles, Min VisibilityMiles, Max Wind SpeedMPH, Mean Wind SpeedMPH, Max Gust SpeedMPH,PrecipitationIn, CloudCover, Events, WindDirDegrees
2013-8-1,84,80,75,70,68,64,71,65,58,30.04,30.01,29.97,10,10,10,10,4,16,0.00,5,,178
2013-8-2,84,80,75,70,67,62,74,64,53,30.02,29.99,29.95,10,10,10,12,3,,0.00,5,,220
2013-8-3,87,82,77,70,67,62,69,62,53,30.01,29.98,29.94,10,10,10,12,7,,0.00,5,,205
2013-8-4,84,78,73,69,66,63,71,62,55,30.00,29.96,29.93,10,10,10,10,7,,0.00,2,,159
2013-8-5,84,80,75,70,67,63,69,63,56,30.00,29.96,29.92,10,10,10,13,5,,0.00,3,,179
2013-8-6,84,80,75,70,67,60,69,64,56,30.01,29.97,29.94,10,10,10,12,6,,0.00,3,,164
2013-8-7,86,80,73,68,65,60,68,60,49,30.04,29.99,29.95,10,10,10,16,7,,0.00,2,,167
2013-8-8,86,80,73,68,66,62,69,62,53,30.05,30.01,29.97,10,10,10,12,7,,0.00,2,,178
2013-8-9,87,81,75,70,65,61,67,59,48,30.02,29.97,29.91,10,10,10,16,9,,0.00,1,,178
2013-8-10,86,82,77,72,71,67,79,69,60,29.99,29.96,29.92,10,10,10,12,8,,0.00,4,,291
2013-8-11,84,82,80,74,72,70,79,72,65,30.00,29.97,29.94,10,10,10,10,6,,0.00,7,Rain,190
2013-8-12,84,81,78,73,70,63,79,71,58,30.03,29.99,29.94,10,10,10,18,8,26,0.00,6,Rain,152
2013-8-13,84,80,75,69,66,60,76,63,54,29.99,29.95,29.92,10,10,10,18,10,23,0.01,5,,128
2013-8-14,86,80,73,70,68,63,76,66,55,30.00,29.95,29.90,10,10,10,13,7,,0.00,2,,180
2013-8-15,86,80,75,69,67,63,74,63,53,30.00,29.96,29.92,10,10,10,13,7,,0.00,3,,175
2013-8-16,87,81,75,69,66,63,69,61,53,30.00,29.96,29.92,10,10,10,14,6,,0.00,2,,165
2013-8-17,87,82,77,72,67,62,69,62,56,29.99,29.96,29.92,10,10,10,13,6,,0.00,2,,208
2013-8-18,87,81,75,69,67,65,72,63,53,30.00,29.96,29.93,10,10,10,14,8,,0.00,3,Rain,202
2013-8-19,84,80,75,68,65,61,68,58,49,30.00,29.97,29.93,10,10,10,15,8,,0.00,2,,259
2013-8-20,84,80,75,71,69,63,74,66,59,29.98,29.95,29.91,10,10,10,14,8,,0.00,4,,224
2013-8-21,86,82,77,72,70,68,78,70,59,29.97,29.94,29.89,10,10,10,14,9,,0.00,3,,206
2013-8-22,84,81,78,72,70,66,77,70,59,29.98,29.94,29.89,10,10,10,12,5,,0.00,6,,227
2013-8-23,87,82,77,72,68,61,74,62,54,29.98,29.94,29.90,10,10,10,14,9,,0.00,4,,250
2013-8-24,88,82,77,71,69,66,76,66,49,30.01,29.96,29.92,10,10,10,13,5,,0.00,2,,210
2013-8-25,86,80,75,70,67,63,69,63,55,30.05,29.99,29.96,10,10,10,16,7,,0.00,1,,161
2013-8-26,86,80,75,72,68,62,76,65,53,30.05,30.03,29.99,10,10,10,15,6,,0.00,3,,167
2013-8-27,84,80,75,69,67,63,71,63,56,30.06,30.01,29.96,10,10,10,13,7,,0.01,5,Rain,156
2013-8-28,87,80,73,70,65,61,71,60,50,30.00,29.93,29.87,10,10,10,24,8,31,0.00,1,,31
2013-8-29,84,80,77,71,67,64,74,64,53,29.95,29.91,29.85,10,10,10,15,8,,0.00,2,,146
2013-8-30,84,80,75,70,65,59,66,57,47,30.00,29.96,29.93,10,10,10,10,6,,0.00,2,,272
2013-8-31,87,81,75,69,65,61,69,57,46,30.01,29.96,29.91,10,10,10,15,8,21,0.00,4,,152